CCA8569 ZGGG-ZBAA

Flight info

Callsign CCA8569
Flight time 2h 28m
Altitude 36100
Route MIKIP9 MIKIP A461 BUBDA W56 REBIS/K0854S1130 W56 LEBUN/K0835S1160 W56 NUDKU/K0830S1130 W56 DUGEB DUGEB4A
Aircraft A319/M-SDE3FGHIRWY/LB1

Departure

Time 2026-05-04 11:19
Airport Guangzhou Baiyun International Airport (ZGGG)

Arrival

Time 2026-05-04 13:47
Airport Beijing Capital International Airport (ZBAA)
Time Latitude Longitude Altitude Speed Heading
2026-05-04 10:52 23.38881 113.30200 59 ft 0 kts 208°
2026-05-04 11:06 23.38892 113.30207 58 ft 3 kts 205°
2026-05-04 11:06 23.38911 113.30215 55 ft 3 kts 199°
2026-05-04 11:06 23.38930 113.30222 52 ft 3 kts 190°
2026-05-04 11:06 23.38950 113.30224 52 ft 3 kts 175°
2026-05-04 11:08 23.38975 113.30213 58 ft 0 kts 118°
2026-05-04 11:10 23.38916 113.30337 56 ft 11 kts 115°
2026-05-04 11:12 23.38334 113.30539 57 ft 22 kts 194°
2026-05-04 11:12 23.38184 113.30499 57 ft 23 kts 194°
2026-05-04 11:12 23.38083 113.30472 53 ft 12 kts 193°
2026-05-04 11:12 23.37991 113.30447 55 ft 16 kts 194°
2026-05-04 11:13 23.37871 113.30415 53 ft 19 kts 194°
2026-05-04 11:13 23.37744 113.30380 53 ft 13 kts 193°
2026-05-04 11:13 23.37648 113.30359 58 ft 15 kts 174°
2026-05-04 11:13 23.37601 113.30449 58 ft 15 kts 103°
2026-05-04 11:14 23.37576 113.30562 58 ft 16 kts 103°
2026-05-04 11:14 23.37547 113.30687 56 ft 16 kts 105°
2026-05-04 11:14 23.37543 113.30702 58 ft 3 kts 111°
2026-05-04 11:16 23.37001 113.30649 58 ft 5 kts 105°
2026-05-04 11:16 23.36999 113.30658 58 ft 3 kts 105°
2026-05-04 11:16 23.36989 113.30700 55 ft 8 kts 104°
2026-05-04 11:17 23.36977 113.30770 50 ft 10 kts 77°
2026-05-04 11:17 23.37014 113.30786 55 ft 1 kts 12°
2026-05-04 11:19 23.41302 113.31890 1544 ft 176 kts 13°
2026-05-04 11:19 23.42569 113.32183 1949 ft 199 kts 13°
2026-05-04 11:19 23.44010 113.32551 2389 ft 222 kts 15°
2026-05-04 11:19 23.45533 113.32984 3189 ft 230 kts 16°
2026-05-04 11:20 23.47100 113.33436 4021 ft 236 kts 14°
2026-05-04 11:20 23.48712 113.33897 4850 ft 243 kts 13°
2026-05-04 11:20 23.50381 113.34368 5628 ft 251 kts 12°
2026-05-04 11:20 23.52093 113.34843 6429 ft 257 kts 11°
2026-05-04 11:22 23.65256 113.37664 11348 ft 308 kts
2026-05-04 11:22 23.67418 113.38053 11611 ft 332 kts
2026-05-04 11:23 23.69776 113.38488 11838 ft 356 kts
2026-05-04 11:23 23.72268 113.38961 12345 ft 368 kts
2026-05-04 11:24 23.87830 113.41979 16190 ft 397 kts
2026-05-04 11:25 23.90565 113.42499 16823 ft 401 kts
2026-05-04 11:25 23.93325 113.43026 17453 ft 405 kts
2026-05-04 11:25 23.96120 113.43562 18058 ft 409 kts
2026-05-04 11:26 24.01791 113.44649 19178 ft 417 kts
2026-05-04 11:27 24.21899 113.43784 23051 ft 421 kts 346°
2026-05-04 11:28 24.24816 113.43391 23569 ft 424 kts 346°
2026-05-04 11:28 24.27715 113.43000 23988 ft 426 kts 346°
2026-05-04 11:28 24.30669 113.42600 24388 ft 429 kts 346°
2026-05-04 11:28 24.33644 113.42196 24786 ft 433 kts 346°
2026-05-04 11:29 24.36688 113.42058 25172 ft 444 kts 354°
2026-05-04 11:29 24.39798 113.42141 25558 ft 447 kts 354°
2026-05-04 11:29 24.42915 113.42229 25959 ft 450 kts 354°
2026-05-04 11:29 24.46062 113.42326 26328 ft 454 kts 354°
2026-05-04 11:31 24.68687 113.43084 28943 ft 476 kts 354°
2026-05-04 11:33 24.92316 113.43715 31343 ft 490 kts 353°
2026-05-04 11:33 24.95715 113.43811 31790 ft 489 kts 353°
2026-05-04 11:33 24.99069 113.43907 32229 ft 488 kts 353°
2026-05-04 11:34 25.02455 113.44004 32676 ft 486 kts 353°
2026-05-04 11:34 25.05838 113.44097 33110 ft 485 kts 353°
2026-05-04 11:34 25.09207 113.44187 33554 ft 484 kts 352°
2026-05-04 11:34 25.12578 113.44275 33987 ft 484 kts 352°
2026-05-04 11:35 25.14812 113.44333 34118 ft 484 kts 352°
2026-05-04 11:35 25.18168 113.44423 34170 ft 481 kts 352°
2026-05-04 11:35 25.24840 113.44613 34174 ft 478 kts 352°
2026-05-04 11:36 25.31480 113.44797 34184 ft 477 kts 352°
2026-05-04 11:36 25.38115 113.44977 34184 ft 477 kts 352°
2026-05-04 11:37 25.44753 113.45153 34185 ft 477 kts 352°
2026-05-04 11:37 25.51401 113.45336 34194 ft 478 kts 352°
2026-05-04 11:38 25.58055 113.45530 34205 ft 478 kts 352°
2026-05-04 11:38 25.64707 113.45722 34204 ft 477 kts 352°
2026-05-04 11:39 25.71342 113.45916 34202 ft 477 kts 351°
2026-05-04 11:41 25.94411 113.46243 34190 ft 469 kts 347°
2026-05-04 11:41 26.00914 113.45887 34188 ft 468 kts 347°
2026-05-04 11:42 26.07419 113.45553 34220 ft 468 kts 347°
2026-05-04 11:42 26.13943 113.45291 34206 ft 468 kts 347°
2026-05-04 11:43 26.20460 113.45068 34198 ft 467 kts 347°
2026-05-04 11:43 26.26946 113.44841 34192 ft 465 kts 347°
2026-05-04 11:44 26.33418 113.44596 34184 ft 464 kts 347°
2026-05-04 11:44 26.39829 113.44345 34178 ft 464 kts 347°
2026-05-04 11:45 26.46275 113.44090 34175 ft 463 kts 347°
2026-05-04 11:45 26.52719 113.43836 34170 ft 463 kts 347°
2026-05-04 11:46 26.59167 113.43588 34163 ft 463 kts 347°
2026-05-04 11:46 26.65613 113.43351 34163 ft 463 kts 347°
2026-05-04 11:47 26.72053 113.43100 34157 ft 463 kts 347°
2026-05-04 11:47 26.78451 113.42852 34146 ft 462 kts 347°
2026-05-04 11:48 26.84888 113.42603 34151 ft 463 kts 347°
2026-05-04 11:48 26.91330 113.42351 34153 ft 463 kts 347°
2026-05-04 11:49 26.97775 113.42097 34157 ft 463 kts 347°
2026-05-04 11:49 27.04209 113.41856 34157 ft 463 kts 347°
2026-05-04 11:50 27.10643 113.41614 34152 ft 462 kts 347°
2026-05-04 11:50 27.17076 113.41362 34161 ft 462 kts 347°
2026-05-04 11:51 27.23496 113.41112 34163 ft 462 kts 347°
2026-05-04 11:51 27.29911 113.40865 34159 ft 461 kts 347°
2026-05-04 11:52 27.36336 113.40697 34152 ft 464 kts 349°
2026-05-04 11:52 27.42820 113.40842 34160 ft 466 kts 351°
2026-05-04 11:53 27.49299 113.41068 34160 ft 466 kts 351°
2026-05-04 11:53 27.55730 113.41228 34155 ft 464 kts 350°
2026-05-04 11:55 27.81680 113.42817 34155 ft 470 kts 354°
2026-05-04 11:56 27.88094 113.43441 34150 ft 468 kts 353°
2026-05-04 11:56 27.94572 113.44003 34154 ft 467 kts 353°
2026-05-04 11:57 28.01062 113.44542 34157 ft 467 kts 353°
2026-05-04 11:57 28.07545 113.45103 34155 ft 466 kts 353°
2026-05-04 11:58 28.14011 113.45636 34150 ft 464 kts 352°
2026-05-04 11:58 28.20455 113.46078 34155 ft 464 kts 352°
2026-05-04 11:59 28.26898 113.46503 34157 ft 464 kts 352°
2026-05-04 11:59 28.33341 113.46965 34156 ft 464 kts 352°
2026-05-04 12:00 28.39781 113.47437 34150 ft 463 kts 353°
2026-05-04 12:00 28.46219 113.47909 34162 ft 464 kts 352°
2026-05-04 12:01 28.52594 113.48363 34135 ft 461 kts 352°
2026-05-04 12:02 28.75061 113.49965 34133 ft 463 kts 352°
2026-05-04 12:03 28.81494 113.50437 34135 ft 463 kts 352°
2026-05-04 12:03 28.87925 113.50897 34135 ft 463 kts 352°
2026-05-04 12:04 28.94313 113.51347 34134 ft 463 kts 352°
2026-05-04 12:04 29.00743 113.51803 34127 ft 463 kts 352°
2026-05-04 12:05 29.07185 113.52266 34129 ft 464 kts 352°
2026-05-04 12:05 29.13634 113.52735 34128 ft 464 kts 352°
2026-05-04 12:06 29.20089 113.53208 34125 ft 464 kts 353°
2026-05-04 12:06 29.26544 113.53671 34122 ft 465 kts 352°
2026-05-04 12:07 29.32970 113.54167 34117 ft 466 kts 353°
2026-05-04 12:07 29.39446 113.54738 34120 ft 467 kts 354°
2026-05-04 12:08 29.45922 113.55327 34125 ft 466 kts 354°
2026-05-04 12:08 29.52394 113.55890 34130 ft 466 kts 354°
2026-05-04 12:09 29.58859 113.56444 34134 ft 466 kts 354°
2026-05-04 12:09 29.65322 113.57006 34134 ft 466 kts 354°
2026-05-04 12:10 29.71782 113.57576 34132 ft 465 kts 354°
2026-05-04 12:10 29.78244 113.58137 34127 ft 465 kts 354°
2026-05-04 12:11 29.84697 113.58701 34125 ft 465 kts 354°
2026-05-04 12:11 29.91144 113.59266 34126 ft 465 kts 355°
2026-05-04 12:12 29.94377 113.59852 34122 ft 477 kts
2026-05-04 12:12 29.97563 113.61064 34121 ft 488 kts 14°
2026-05-04 12:12 30.03813 113.64178 34120 ft 489 kts 15°
2026-05-04 12:14 30.28778 113.76657 34109 ft 488 kts 15°
2026-05-04 12:15 30.35012 113.79787 34113 ft 488 kts 15°
2026-05-04 12:15 30.41237 113.82918 34118 ft 488 kts 15°
2026-05-04 12:16 30.47419 113.86032 34122 ft 487 kts 15°
2026-05-04 12:16 30.53641 113.89163 34120 ft 487 kts 15°
2026-05-04 12:17 30.59851 113.92292 34130 ft 486 kts 15°
2026-05-04 12:17 30.66063 113.95418 34133 ft 485 kts 15°
2026-05-04 12:18 30.72273 113.98475 34141 ft 485 kts 16°
2026-05-04 12:18 30.78400 114.01835 34132 ft 488 kts 18°
2026-05-04 12:19 30.84463 114.05274 34141 ft 487 kts 18°
2026-05-04 12:19 30.90588 114.08612 34142 ft 485 kts 17°
2026-05-04 12:20 30.96727 114.11902 34139 ft 485 kts 17°
2026-05-04 12:20 31.02845 114.15211 34134 ft 485 kts 17°
2026-05-04 12:21 31.08962 114.18532 34124 ft 484 kts 18°
2026-05-04 12:21 31.14044 114.21299 34119 ft 484 kts 18°
2026-05-04 12:22 31.20154 114.24633 34115 ft 484 kts 18°
2026-05-04 12:22 31.26256 114.27966 34115 ft 484 kts 18°
2026-05-04 12:23 31.32362 114.31280 34106 ft 482 kts 15°
2026-05-04 12:23 31.38703 114.33180 34107 ft 462 kts 357°
2026-05-04 12:24 31.45067 114.33442 34105 ft 457 kts 353°
2026-05-04 12:24 31.51378 114.33631 34106 ft 456 kts 353°
2026-05-04 12:25 31.57733 114.33821 34104 ft 456 kts 354°
2026-05-04 12:25 31.64084 114.34014 34107 ft 456 kts 354°
2026-05-04 12:26 31.70430 114.34200 34110 ft 456 kts 354°
2026-05-04 12:26 31.76760 114.34378 34110 ft 455 kts 354°
2026-05-04 12:27 31.83096 114.34565 34112 ft 455 kts 354°
2026-05-04 12:27 31.89425 114.34763 34115 ft 454 kts 354°
2026-05-04 12:28 31.95735 114.34958 34113 ft 454 kts 354°
2026-05-04 12:28 32.02045 114.35149 34107 ft 453 kts 354°
2026-05-04 12:29 32.08309 114.35338 34109 ft 452 kts 354°
2026-05-04 12:29 32.14600 114.35531 34106 ft 452 kts 354°
2026-05-04 12:30 32.20886 114.35719 34101 ft 452 kts 355°
2026-05-04 12:30 32.27173 114.35934 34099 ft 452 kts 356°
2026-05-04 12:31 32.33471 114.36437 34098 ft 454 kts 358°
2026-05-04 12:31 32.39728 114.37097 34096 ft 454 kts 359°
2026-05-04 12:32 32.49152 114.38019 34092 ft 452 kts 359°
2026-05-04 12:33 32.55424 114.38584 34094 ft 452 kts 359°
2026-05-04 12:33 32.61696 114.39159 34096 ft 451 kts 359°
2026-05-04 12:34 32.67954 114.39726 34094 ft 450 kts 359°
2026-05-04 12:34 32.74198 114.40306 34092 ft 450 kts 359°
2026-05-04 12:35 32.80447 114.40894 34090 ft 450 kts 360°
2026-05-04 12:35 32.86680 114.41483 34085 ft 449 kts 360°
2026-05-04 12:36 32.92912 114.42067 34082 ft 449 kts 360°
2026-05-04 12:36 32.99140 114.42643 34080 ft 449 kts 360°
2026-05-04 12:37 33.05318 114.43219 34077 ft 448 kts
2026-05-04 12:37 33.11536 114.43802 34074 ft 448 kts
2026-05-04 12:38 33.17749 114.44382 34071 ft 448 kts
2026-05-04 12:38 33.23957 114.44970 34072 ft 447 kts
2026-05-04 12:39 33.30166 114.45559 34070 ft 447 kts
2026-05-04 12:39 33.36361 114.46137 34073 ft 446 kts
2026-05-04 12:40 33.42556 114.46712 34070 ft 446 kts
2026-05-04 12:40 33.48744 114.47291 34070 ft 446 kts
2026-05-04 12:41 33.54921 114.47873 34073 ft 445 kts
2026-05-04 12:41 33.61097 114.48460 34071 ft 445 kts
2026-05-04 12:42 33.67267 114.48988 34066 ft 444 kts
2026-05-04 12:42 33.73400 114.49457 34067 ft 444 kts
2026-05-04 12:43 33.79562 114.50092 34066 ft 444 kts
2026-05-04 12:43 33.85713 114.50790 34063 ft 444 kts
2026-05-04 12:44 33.91867 114.51396 34064 ft 443 kts
2026-05-04 12:44 33.98011 114.51944 34061 ft 442 kts
2026-05-04 12:45 34.04108 114.52502 34060 ft 442 kts
2026-05-04 12:45 34.10239 114.53087 34057 ft 442 kts
2026-05-04 12:46 34.16360 114.53663 34065 ft 441 kts
2026-05-04 12:46 34.22480 114.54239 34066 ft 440 kts
2026-05-04 12:47 34.28585 114.54824 34069 ft 440 kts
2026-05-04 12:47 34.34678 114.55409 34059 ft 439 kts
2026-05-04 12:48 34.40776 114.55997 34065 ft 439 kts
2026-05-04 12:48 34.46864 114.56582 34063 ft 438 kts
2026-05-04 12:49 34.52942 114.57161 34058 ft 438 kts
2026-05-04 12:49 34.58991 114.57747 34055 ft 438 kts
2026-05-04 12:50 34.65070 114.58348 34051 ft 438 kts
2026-05-04 12:50 34.71145 114.58940 34047 ft 438 kts
2026-05-04 12:51 34.77217 114.59528 34047 ft 438 kts
2026-05-04 12:51 34.83296 114.60116 34046 ft 438 kts
2026-05-04 12:52 34.89372 114.60705 34044 ft 438 kts
2026-05-04 12:52 34.95447 114.61310 34044 ft 438 kts
2026-05-04 12:53 35.01516 114.61908 34042 ft 438 kts
2026-05-04 12:53 35.07549 114.62492 34041 ft 437 kts
2026-05-04 12:54 35.13617 114.63093 34039 ft 437 kts
2026-05-04 12:54 35.19690 114.63688 34040 ft 437 kts
2026-05-04 12:55 35.25760 114.64273 34038 ft 437 kts
2026-05-04 12:55 35.31820 114.64862 34040 ft 437 kts
2026-05-04 12:56 35.37877 114.65439 34043 ft 436 kts
2026-05-04 12:56 35.43887 114.65998 34042 ft 436 kts
2026-05-04 12:57 35.49933 114.66567 34043 ft 435 kts
2026-05-04 12:57 35.55968 114.67146 34044 ft 434 kts
2026-05-04 12:58 35.61991 114.67724 34047 ft 434 kts
2026-05-04 12:58 35.68005 114.68298 34045 ft 433 kts
2026-05-04 12:59 35.74013 114.68867 34045 ft 432 kts
2026-05-04 12:59 35.79962 114.69429 34047 ft 431 kts
2026-05-04 13:00 35.85940 114.70000 34041 ft 430 kts
2026-05-04 13:00 35.91913 114.70567 34040 ft 430 kts
2026-05-04 13:01 35.97879 114.71138 34033 ft 430 kts
2026-05-04 13:01 36.03847 114.71721 34026 ft 429 kts
2026-05-04 13:02 36.09807 114.72295 34025 ft 429 kts
2026-05-04 13:02 36.15761 114.72875 34019 ft 429 kts
2026-05-04 13:03 36.21710 114.73456 34016 ft 429 kts
2026-05-04 13:03 36.27658 114.74046 34014 ft 429 kts
2026-05-04 13:04 36.33602 114.74646 34004 ft 428 kts
2026-05-04 13:04 36.39448 114.76235 34005 ft 436 kts 18°
2026-05-04 13:05 36.44972 114.79400 34003 ft 437 kts 21°
2026-05-04 13:05 36.50491 114.82596 34001 ft 437 kts 21°
2026-05-04 13:06 36.56011 114.85785 33997 ft 437 kts 21°
2026-05-04 13:06 36.61492 114.88961 33995 ft 437 kts 21°
2026-05-04 13:07 36.67008 114.92167 33996 ft 437 kts 21°
2026-05-04 13:07 36.72523 114.95384 33998 ft 437 kts 21°
2026-05-04 13:08 36.77114 114.98061 33995 ft 437 kts 21°
2026-05-04 13:08 36.82631 115.01278 33999 ft 437 kts 21°
2026-05-04 13:09 36.88145 115.04502 33996 ft 437 kts 22°
2026-05-04 13:09 36.93655 115.07727 34000 ft 437 kts 22°
2026-05-04 13:10 36.99161 115.10964 33997 ft 437 kts 22°
2026-05-04 13:10 37.04660 115.14204 33995 ft 437 kts 22°
2026-05-04 13:11 37.10162 115.17440 34002 ft 436 kts 22°
2026-05-04 13:11 37.15657 115.20678 33995 ft 436 kts 22°
2026-05-04 13:12 37.21144 115.23923 33996 ft 436 kts 22°
2026-05-04 13:12 37.26595 115.27144 33995 ft 435 kts 22°
2026-05-04 13:13 37.32080 115.30396 34004 ft 435 kts 22°
2026-05-04 13:13 37.37556 115.33645 34001 ft 434 kts 22°
2026-05-04 13:14 37.43013 115.36887 33996 ft 434 kts 22°
2026-05-04 13:14 37.48466 115.40129 33993 ft 433 kts 22°
2026-05-04 13:15 37.53883 115.43354 33988 ft 433 kts 22°
2026-05-04 13:15 37.59315 115.46600 33957 ft 432 kts 22°
2026-05-04 13:15 37.62029 115.48224 33358 ft 431 kts 22°
2026-05-04 13:16 37.64742 115.49845 32638 ft 432 kts 22°
2026-05-04 13:16 37.67461 115.51471 31922 ft 432 kts 22°
2026-05-04 13:16 37.70184 115.53102 31209 ft 433 kts 22°
2026-05-04 13:16 37.72904 115.54736 30488 ft 434 kts 22°
2026-05-04 13:17 37.75629 115.56375 29727 ft 434 kts 22°
2026-05-04 13:17 37.78444 115.57731 28856 ft 432 kts 13°
2026-05-04 13:17 37.81370 115.58443 28210 ft 425 kts
2026-05-04 13:17 37.84302 115.58546 27573 ft 420 kts 356°
2026-05-04 13:18 37.87214 115.58333 26923 ft 416 kts 355°
2026-05-04 13:18 37.90094 115.58126 26297 ft 413 kts 355°
2026-05-04 13:18 37.92955 115.57920 25684 ft 410 kts 355°
2026-05-04 13:18 37.95794 115.57713 25104 ft 407 kts 356°
2026-05-04 13:19 37.98615 115.57510 24521 ft 405 kts 356°
2026-05-04 13:19 38.01421 115.57303 23948 ft 402 kts 356°
2026-05-04 13:19 38.04212 115.57096 23376 ft 400 kts 356°
2026-05-04 13:19 38.06983 115.56892 22739 ft 398 kts 356°
2026-05-04 13:20 38.09733 115.56702 22161 ft 395 kts 356°
2026-05-04 13:20 38.12471 115.56559 21611 ft 392 kts 356°
2026-05-04 13:20 38.15186 115.56411 21085 ft 389 kts 356°
2026-05-04 13:20 38.17885 115.56242 20574 ft 387 kts 356°
2026-05-04 13:21 38.20568 115.56059 20091 ft 385 kts 356°
2026-05-04 13:21 38.23231 115.55890 19621 ft 383 kts 358°
2026-05-04 13:21 38.25852 115.56101 19160 ft 382 kts
2026-05-04 13:21 38.28439 115.56849 18694 ft 382 kts 16°
2026-05-04 13:22 38.30901 115.58111 18230 ft 381 kts 24°
2026-05-04 13:22 38.33274 115.59611 17697 ft 380 kts 24°
2026-05-04 13:22 38.35641 115.61103 17181 ft 378 kts 24°
2026-05-04 13:22 38.37989 115.62582 16682 ft 375 kts 24°
2026-05-04 13:23 38.40316 115.64049 16193 ft 372 kts 24°
2026-05-04 13:23 38.42633 115.65506 15724 ft 370 kts 24°
2026-05-04 13:23 38.44937 115.66957 15554 ft 369 kts 24°
2026-05-04 13:23 38.47241 115.68409 15578 ft 370 kts 24°
2026-05-04 13:24 38.49551 115.69864 15579 ft 370 kts 24°
2026-05-04 13:24 38.51859 115.71320 15578 ft 370 kts 24°
2026-05-04 13:24 38.54166 115.72775 15579 ft 370 kts 24°
2026-05-04 13:25 38.58782 115.75698 15579 ft 370 kts 25°
2026-05-04 13:25 38.61062 115.77146 15578 ft 370 kts 25°
2026-05-04 13:25 38.63393 115.78647 15581 ft 370 kts 26°
2026-05-04 13:25 38.65640 115.80259 15580 ft 371 kts 28°
2026-05-04 13:26 38.67819 115.81953 15580 ft 371 kts 30°
2026-05-04 13:26 38.70034 115.83738 15581 ft 371 kts 31°
2026-05-04 13:26 38.72186 115.85483 15583 ft 371 kts 30°
2026-05-04 13:26 38.74377 115.87244 15581 ft 371 kts 30°
2026-05-04 13:27 38.76574 115.88983 15574 ft 371 kts 30°
2026-05-04 13:27 38.78763 115.90702 15193 ft 367 kts 30°
2026-05-04 13:27 38.80942 115.92401 14722 ft 365 kts 30°
2026-05-04 13:27 38.83106 115.94087 14262 ft 362 kts 30°
2026-05-04 13:28 38.85242 115.95755 13823 ft 359 kts 30°
2026-05-04 13:28 38.87366 115.97415 13337 ft 356 kts 30°
2026-05-04 13:28 38.89446 115.99045 12820 ft 354 kts 30°
2026-05-04 13:28 38.91539 116.00687 12290 ft 352 kts 29°
2026-05-04 13:29 38.93625 116.02324 11756 ft 351 kts 29°
2026-05-04 13:29 38.95701 116.03956 11219 ft 349 kts 29°
2026-05-04 13:29 38.97773 116.05584 10689 ft 348 kts 29°
2026-05-04 13:29 38.99833 116.07201 10148 ft 347 kts 28°
2026-05-04 13:30 39.01903 116.08834 9867 ft 338 kts 28°
2026-05-04 13:30 39.03863 116.10384 9740 ft 325 kts 28°
2026-05-04 13:30 39.05728 116.11857 9616 ft 312 kts 28°
2026-05-04 13:30 39.07544 116.13285 9481 ft 300 kts 28°
2026-05-04 13:31 39.09305 116.14667 9216 ft 294 kts 28°
2026-05-04 13:31 39.11047 116.16036 8833 ft 292 kts 28°
2026-05-04 13:31 39.12781 116.17402 8420 ft 292 kts 28°
2026-05-04 13:31 39.14509 116.18765 8012 ft 292 kts 28°
2026-05-04 13:32 39.16247 116.20139 7606 ft 292 kts 28°
2026-05-04 13:32 39.17980 116.21511 7205 ft 293 kts 28°
2026-05-04 13:32 39.19716 116.22875 6939 ft 292 kts 28°
2026-05-04 13:32 39.21463 116.24240 6921 ft 295 kts 28°
2026-05-04 13:33 39.23214 116.25629 6915 ft 296 kts 29°
2026-05-04 13:33 39.24964 116.27026 6922 ft 296 kts 29°
2026-05-04 13:33 39.26715 116.28425 6919 ft 296 kts 29°
2026-05-04 13:33 39.28467 116.29821 6925 ft 296 kts 29°
2026-05-04 13:34 39.30219 116.31215 6929 ft 296 kts 29°
2026-05-04 13:34 39.31975 116.32615 6929 ft 296 kts 29°
2026-05-04 13:34 39.33764 116.33918 6930 ft 295 kts 23°
2026-05-04 13:34 39.35612 116.35068 6932 ft 294 kts 22°
2026-05-04 13:35 39.37467 116.36205 6932 ft 295 kts 22°
2026-05-04 13:35 39.41177 116.38470 6931 ft 295 kts 22°
2026-05-04 13:35 39.43011 116.39589 6933 ft 295 kts 22°
2026-05-04 13:36 39.44867 116.40720 6937 ft 295 kts 22°
2026-05-04 13:36 39.46723 116.41848 6931 ft 295 kts 22°
2026-05-04 13:36 39.48576 116.42975 6936 ft 294 kts 22°
2026-05-04 13:36 39.50432 116.44107 6934 ft 294 kts 22°
2026-05-04 13:37 39.52282 116.45235 6937 ft 294 kts 22°
2026-05-04 13:37 39.54136 116.46364 6934 ft 294 kts 22°
2026-05-04 13:37 39.55987 116.47491 6935 ft 294 kts 22°
2026-05-04 13:37 39.57219 116.48240 6935 ft 294 kts 22°
2026-05-04 13:38 39.59688 116.49744 6672 ft 292 kts 22°
2026-05-04 13:38 39.61530 116.50862 6291 ft 292 kts 22°
2026-05-04 13:38 39.63376 116.51976 5883 ft 293 kts 22°
2026-05-04 13:38 39.65224 116.53088 5462 ft 293 kts 22°
2026-05-04 13:39 39.67083 116.54202 5073 ft 293 kts 22°
2026-05-04 13:39 39.68935 116.55307 4670 ft 293 kts 22°
2026-05-04 13:39 39.70788 116.56407 4329 ft 290 kts 22°
2026-05-04 13:39 39.72587 116.57476 4210 ft 279 kts 22°
2026-05-04 13:40 39.74303 116.58500 4074 ft 264 kts 22°
2026-05-04 13:40 39.75934 116.59478 3957 ft 254 kts 22°
2026-05-04 13:40 39.77507 116.60425 3903 ft 242 kts 22°
2026-05-04 13:40 39.79037 116.61104 3891 ft 223 kts
2026-05-04 13:41 39.80529 116.61201 3892 ft 210 kts 358°
2026-05-04 13:41 39.81959 116.61287 3912 ft 205 kts 352°
2026-05-04 13:41 39.83382 116.61166 3916 ft 202 kts 347°
2026-05-04 13:42 39.85972 116.60787 3896 ft 175 kts 345°
2026-05-04 13:42 39.87131 116.60607 3889 ft 163 kts 343°
2026-05-04 13:42 39.88254 116.60427 3787 ft 163 kts 343°
2026-05-04 13:42 39.89377 116.60249 3607 ft 162 kts 343°
2026-05-04 13:43 39.90498 116.60073 3410 ft 162 kts 343°
2026-05-04 13:43 39.91617 116.59897 3204 ft 161 kts 343°
2026-05-04 13:43 39.92728 116.59722 3002 ft 160 kts 343°
2026-05-04 13:43 39.93835 116.59548 2787 ft 160 kts 343°
2026-05-04 13:44 39.94929 116.59377 2585 ft 157 kts 343°
2026-05-04 13:44 39.96012 116.59206 2379 ft 156 kts 343°
2026-05-04 13:44 39.97093 116.59036 2172 ft 156 kts 343°
2026-05-04 13:44 39.98170 116.58866 1966 ft 156 kts 344°
2026-05-04 13:45 39.99250 116.58696 1761 ft 157 kts 344°
2026-05-04 13:45 40.00332 116.58526 1553 ft 157 kts 345°
2026-05-04 13:45 40.01400 116.58358 1346 ft 156 kts 347°
2026-05-04 13:45 40.02476 116.58188 1139 ft 156 kts 348°
2026-05-04 13:46 40.03537 116.58020 925 ft 151 kts 350°
2026-05-04 13:46 40.04549 116.57860 701 ft 145 kts 351°
2026-05-04 13:46 40.05530 116.57702 500 ft 140 kts 354°
2026-05-04 13:46 40.06485 116.57550 328 ft 138 kts 352°
2026-05-04 13:47 40.07427 116.57409 151 ft 135 kts 355°
2026-05-04 13:47 40.08258 116.57280 125 ft 97 kts 353°
2026-05-04 13:47 40.08752 116.57202 122 ft 48 kts 353°
2026-05-04 13:47 40.08928 116.57175 122 ft 14 kts 352°
2026-05-04 13:48 40.09032 116.57161 124 ft 16 kts 355°
2026-05-04 13:48 40.09153 116.57173 123 ft 18 kts 11°
2026-05-04 13:48 40.09281 116.57224 123 ft 20 kts 20°
2026-05-04 13:48 40.09337 116.57286 122 ft 10 kts 84°
2026-05-04 13:49 40.09284 116.57345 123 ft 12 kts 173°
2026-05-04 13:49 40.09228 116.57353 125 ft 9 kts 171°
2026-05-04 13:49 40.09159 116.57364 124 ft 11 kts 173°
2026-05-04 13:49 40.09076 116.57377 122 ft 5 kts 173°
2026-05-04 13:50 40.09034 116.57383 122 ft 8 kts 173°
2026-05-04 13:50 40.08974 116.57400 124 ft 10 kts 168°
2026-05-04 13:50 40.08897 116.57404 122 ft 12 kts 177°
2026-05-04 13:50 40.08804 116.57420 123 ft 15 kts 174°
2026-05-04 13:51 40.08694 116.57436 123 ft 17 kts 173°
2026-05-04 13:51 40.08569 116.57456 123 ft 19 kts 173°
2026-05-04 13:51 40.08431 116.57478 122 ft 21 kts 173°
2026-05-04 13:51 40.08280 116.57501 123 ft 23 kts 173°
2026-05-04 13:52 40.08162 116.57653 125 ft 14 kts 82°
2026-05-04 13:52 40.08174 116.57789 125 ft 16 kts 83°
2026-05-04 13:52 40.08195 116.57879 123 ft 11 kts 58°
2026-05-04 13:53 40.08237 116.57976 120 ft 4 kts 83°
2026-05-04 13:53 40.08224 116.58011 124 ft 0 kts 141°
2026-05-04 13:53 40.08222 116.58011 121 ft 0 kts 160°
2026-05-04 13:54 40.08184 116.58009 123 ft 0 kts 156°
2026-05-04 13:54 40.08172 116.58019 124 ft 1 kts 150°